Regional Weather Roundup
Issued by NWS

Home | Current Version | Previous Version | Graphics & Text | Print | Product List | Glossary On
Versions: 1 2 3 4 5 6 7 8 9 10 11 12 13 14 15 16 17 18 19 20 21 22 23 24 25 26 27 28 29 30 31 32 33 34 35 36 37 38 39 40 41 42 43 44 45 46 47 48 49 50
000
ASUS45 KABQ 241101
RWRNM
WEATHER ROUNDUP FOR NEW MEXICO
NATIONAL WEATHER SERVICE ALBUQUERQUE NM
500 AM MDT FRI OCT 24 2014

NOTE: "FAIR" MEANS FEW OR NO CLOUDS BELOW 12,000 FEET AGL WITH NO
       SIGNIFICANT WEATHER OR OBSTRUCTIONS TO VISION.

      THIS PRODUCT IS RELEASED AS TWO VERSIONS.  ONE VERSION NEAR
      THE TOP OF THE HOUR CONTAINING PRELIMINARY DATA FROM ALBUQUERQUE
      AND OTHER STATIONS.  A FINAL VERSION WITH ADDITIONAL DATA IS
      ISSUED ABOUT 10 MINUTES AFTER THE HOUR.

NMZ501-503-504-510>518-241200-
NORTHWEST PLATEAU/NORTHCENTRAL MOUNTAINS

CITY           SKY/WX    TMP DP  RH WIND       PRES   REMARKS
FARMINGTON     CLEAR     43  34  70 E8        30.29S
LOS ALAMOS     PTCLDY    49  30  46 CALM      30.36S
SANTA FE       CLEAR     46  30  53 N13       30.30S
TAOS           CLEAR     34  25  69 N6        30.37R WCI  29
ANGEL FIRE     FAIR      25  21  87 CALM      30.43S

$$
NMZ402-403-502-505>509-241200-
WESTCENTRAL MOUNTAINS/SOUTHWEST MOUNTAINS

CITY           SKY/WX    TMP DP  RH WIND       PRES   REMARKS
GALLUP         PTCLDY    37  32  82 CALM      30.35R
SILVER CITY    CLEAR     48  43  81 NW9       30.29R

$$
NMZ407-409-411-412-241200-
SOUTHERN DESERTS

CITY           SKY/WX    TMP DP  RH WIND       PRES   REMARKS
LORDSBURG      FAIR      46  45  93 MISG      30.21S
DEMING         CLEAR     50  46  86 CALM      30.21F
HOLLOMAN AFB   CLEAR     52  45  77 N2        30.20S
T OR C         CLEAR     54  45  71 W3        30.24S

$$
NMZ519>523-241200-
CENTRAL VALLEYS/CENTRAL HIGHLANDS

CITY           SKY/WX    TMP DP  RH WIND       PRES   REMARKS
ALBUQUERQUE    CLEAR     55  34  45 NW3       30.28R
DOUBLE EAGLE   CLEAR     43  31  62 CALM      30.30S
MORIARTY ARPT  FAIR      35  32  89 S5        30.32R WCI  31
CLINES CORNERS PTCLDY    45  29  53 NW13      30.30S
BELEN          NOT AVBL
SOCORRO        FAIR      49  42  76 W7        30.26S

$$
NMZ524>526-539-540-241200-
SOUTHCENTRAL MOUNTAINS

CITY           SKY/WX    TMP DP  RH WIND       PRES   REMARKS
RUIDOSO        CLEAR     50  36  57 W8        30.35F

$$
NMZ527>531-241200-
NORTHEAST HIGHLANDS/NORTHEAST PLAINS

CITY           SKY/WX    TMP DP  RH WIND       PRES   REMARKS
LAS VEGAS      CLEAR     41  27  57 NE6       30.29F
RATON          CLEAR     38  34  85 NE7       30.26S WCI  33
CLAYTON        CLEAR     56  43  61 W12       30.16F

$$
NMZ532>537-241200-
EASTCENTRAL PLAINS

CITY           SKY/WX    TMP DP  RH WIND       PRES   REMARKS
TUCUMCARI      CLEAR     49  41  74 W8        30.14R
CANNON AFB     CLEAR     57  52  82 W10       30.16S
CLOVIS AIRPORT CLEAR     50  45  81 NW7       30.19R

$$
NMZ028-029-538-241200-
SOUTHEAST PLAINS

CITY           SKY/WX    TMP DP  RH WIND       PRES   REMARKS
ROSWELL        CLEAR     50  47  89 SE5       30.16R
CARLSBAD       CLEAR     57  54  89 N3        30.14S


$$



USA.gov is the U.S. government's official web portal to all federal, state and local government web resources and services.